Location: Unspecified
(58.7730°N, 5.8460°E)
Time: 16:39:37
(UTC+02:00)

CZ-3 Stage 3 - Visible Passes

Search period start: 29 August 2015 00:00
Search period end: 08 September 2015 00:00
Orbit: 439 x 34786 km, 31.0° (Epoch: 25 August)

Date Brightness Start Highest point End Pass type
(mag) Time Alt. Az. Time Alt. Az. Time Alt. Az.
30 Aug 6.7 03:36:41 20° SW 04:10:09 48° SSE 11:57:22 10° S visible
31 Aug 6.9 00:09:33 18° SE 00:20:41 23° ESE 07:53:55 10° SE visible
02 Sep 6.7 03:31:45 22° SW 04:04:26 48° SSE 11:48:24 10° SSW visible
03 Sep 6.9 00:04:39 19° SE 00:14:33 24° ESE 07:46:22 10° SE visible
05 Sep 6.8 03:26:53 24° SW 03:58:45 48° SSE 11:39:12 10° SSW visible
05 Sep 6.9 23:59:47 21° SE 00:08:29 24° ESE 07:38:42 10° SE visible
